Theta_e
312 311 312 313 311 310 310 313 311 311 311 312 315 318 322 323 322 321 325 325 326 327 328 327 325 327 330 329 329 319 327 330 328 325 326 318 320 317 320 329 329 329 326 327 334
311 312 310 312 314 312 310 312 312 310 313 312 313 315 318 322 323 322 321 324 326 327 328 329 328 327 328 330 331 327 327 329 325 322 322 319 318 318 327 330 330 331 330 331 334
312 312 312 311 311 312 311 310 312 312 310 311 312 312 315 320 322 322 321 320 325 326 327 330 328 326 330 330 331 326 331 324 324 320 316 318 317 317 325 330 328 330 330 329 332
313 312 312 311 311 310 312 310 309 312 311 309 310 312 313 320 325 319 321 320 324 327 327 329 325 327 330 331 331 332 329 327 326 328 319 318 316 319 323 324 321 323 328 330 332
314 313 311 311 312 310 310 312 308 308 312 310 308 312 314 318 321 320 322 321 321 327 327 325 324 324 329 330 330 332 331 331 330 328 324 313 315 318 320 320 320 320 329 330 331
314 313 312 311 311 311 309 311 310 308 308 310 307 313 316 319 318 320 321 322 323 327 325 325 323 322 325 330 329 331 332 331 329 329 330 326 316 314 316 317 324 327 329 330 331
311 314 313 312 310 311 310 309 311 309 309 310 308 314 314 314 318 319 320 323 325 327 322 327 325 324 324 328 327 329 327 326 324 326 326 317 317 316 313 322 323 328 328 328 329
309 308 312 312 310 310 310 308 311 310 310 310 309 314 312 312 317 318 320 322 326 326 324 323 323 322 326 325 327 327 327 328 328 329 326 317 327 317 313 322 322 325 327 328 327
308 309 307 314 311 309 309 309 310 309 310 310 312 311 310 311 313 316 320 321 323 325 324 322 323 323 324 327 330 328 324 326 326 325 324 319 323 318 313 319 320 323 326 327 328
307 308 306 310 312 309 309 309 309 309 309 310 311 309 307 310 312 315 318 321 322 322 323 322 324 328 327 325 327 330 328 324 325 325 326 325 328 325 317 313 318 316 322 325 327
304 305 308 308 311 310 309 310 309 309 310 308 309 307 309 310 312 315 317 319 320 322 327 325 327 329 327 327 323 324 327 325 325 320 326 328 328 325 318 315 314 312 315 321 325
305 304 306 307 309 311 309 309 307 305 310 309 308 308 308 310 311 313 317 317 321 325 323 325 328 324 323 323 325 325 327 326 324 322 324 328 329 326 321 318 318 318 315 312 318
304 304 304 307 311 312 309 309 306 306 307 309 309 310 309 309 310 312 314 315 319 322 323 326 323 322 323 324 326 326 327 326 326 320 319 321 325 324 321 316 316 316 317 315 313
303 305 303 307 305 312 309 308 306 306 308 310 311 310 308 308 309 310 313 313 315 320 321 321 320 322 324 326 324 328 324 325 324 327 330 324 325 321 323 323 320 319 316 317 315
303 304 304 305 306 310 308 307 307 304 309 306 310 308 307 308 308 311 313 314 314 316 320 321 321 323 325 323 323 324 322 326 326 327 326 323 326 325 321 323 323 322 319 318 317
303 304 305 306 306 309 308 306 304 306 307 307 308 311 311 308 307 312 313 311 311 315 316 316 311 314 321 321 322 321 325 325 325 327 331 326 327 325 324 322 323 322 322 321 317
303 304 304 306 308 307 306 306 307 309 298 306 308 310 310 310 311 311 313 314 312 313 313 313 316 314 315 322 322 323 325 329 329 328 332 325 324 327 318 317 321 322 322 322 317
303 303 305 305 306 307 306 307 310 300 298 303 305 309 310 310 309 308 311 312 310 311 306 309 309 316 315 318 324 324 326 326 329 327 326 318 327 325 319 319 315 316 319 316 313
303 303 305 306 306 306 305 309 306 300 296 305 306 308 309 308 307 308 307 309 310 309 309 311 309 313 315 316 320 324 326 323 317 303 316 318 319 317 317 316 315 318 312 312 312
303 304 305 306 306 306 306 309 304 298 304 304 305 306 307 308 306 307 306 305 305 309 307 309 310 314 315 321 320 322 321 326 324 327 326 319 321 321 318 320 317 316 316 316 314
303 304 303 306 306 305 308 305 299 298 302 303 302 304 304 306 305 306 305 303 304 307 307 307 308 311 318 321 321 321 325 323 323 322 326 324 321 313 317 316 318 319 318 317 316
303 304 303 306 306 304 308 299 299 300 300 301 302 303 304 304 306 304 303 302 302 307 308 306 309 305 305 310 312 313 311 321 326 327 323 321 321 312 315 316 317 318 318 318 314
302 299 305 306 308 306 302 300 300 302 301 301 302 304 303 303 305 304 303 304 302 307 308 308 309 301 302 305 308 311 312 311 324 322 326 326 323 311 309 311 311 313 312 311 309
302 304 303 306 301 304 303 302 300 299 299 299 300 302 304 304 303 305 307 307 304 304 309 308 308 304 303 301 312 312 316 315 315 328 326 325 323 318 310 309 309 308 307 307 306
299 302 298 305 305 303 302 302 300 301 299 299 300 303 303 306 302 303 305 304 303 308 308 308 311 309 309 309 310 311 315 316 317 320 326 324 323 321 318 314 308 307 307 306 305
300 299 300 302 302 302 302 301 301 298 300 299 300 299 299 302 304 301 300 299 302 300 306 309 304 309 311 311 313 312 311 312 313 314 315 319 323 320 319 313 311 313 307 306 306
294 294 298 302 302 302 293 300 301 299 298 298 299 299 300 298 297 297 297 298 299 300 300 301 299 296 302 303 304 307 306 308 311 312 313 315 321 320 319 316 314 312 307 309 309
Wind_Speed
32 32 30 27 26 24 24 21 17 18 17 17 13 11 12 11 11 9 10 10 11 1 6 8 4 4 6 3 3 3 1 2 3 5 4 3 4 2 0 4 2 5 3 2 18
34 33 32 31 28 27 24 21 20 18 16 15 14 11 10 10 8 16 15 18 12 7 3 10 5 6 3 1 1 4 0 5 1 1 3 2 5 5 4 3 4 3 3 5 24
36 36 33 32 31 28 26 25 20 19 20 16 13 11 9 7 2 6 24 25 23 18 11 6 12 6 3 1 1 3 5 1 3 2 2 4 3 6 5 3 8 10 8 14 20
40 38 35 34 33 31 29 27 25 19 18 16 14 11 9 9 9 4 11 25 23 18 13 9 4 6 5 6 3 5 5 4 5 7 6 5 4 4 7 6 2 8 13 18 20
43 40 39 36 35 33 31 27 25 24 20 16 14 12 9 5 9 2 12 16 29 23 19 7 6 5 6 7 6 5 4 4 5 3 5 4 8 6 8 9 4 6 13 16 19
48 44 40 38 36 35 32 29 25 22 23 18 15 13 6 16 11 19 10 12 22 26 17 13 8 5 4 6 6 9 7 5 3 4 4 3 6 3 6 5 3 6 10 12 18
30 34 43 39 37 37 34 31 26 22 22 19 17 15 9 12 4 13 9 7 22 23 10 16 9 7 8 4 4 6 4 6 7 6 3 3 8 8 7 3 6 8 6 7 13
28 32 33 45 39 38 34 31 27 23 21 19 17 11 9 12 9 5 10 7 15 18 14 7 7 5 3 4 4 4 2 6 4 10 2 5 11 7 6 6 9 8 7 8 11
29 31 32 44 43 39 37 32 27 23 21 18 13 7 7 8 17 16 8 10 10 14 11 7 1 3 2 6 3 5 4 6 3 4 6 5 9 7 4 7 8 8 8 9 9
29 30 28 32 45 41 37 33 24 20 18 17 9 3 5 7 12 22 8 10 6 8 4 4 4 6 4 6 14 7 7 4 5 2 7 8 17 16 6 5 10 8 7 8 11
29 32 31 37 39 45 38 32 11 4 19 7 9 2 1 8 17 14 14 8 4 4 12 8 8 17 26 15 3 7 5 7 4 5 4 9 17 16 7 6 9 10 10 11 13
30 32 30 34 37 47 44 17 26 11 15 5 8 4 2 4 4 4 20 8 7 14 10 7 17 24 15 9 5 2 5 4 1 3 5 5 17 15 9 8 13 14 12 12 11
32 32 32 27 34 45 42 41 32 31 6 14 2 12 4 3 3 7 14 6 5 12 16 16 19 12 13 12 14 13 10 4 4 2 2 4 17 15 12 9 10 10 13 12 15
35 35 36 29 20 49 37 41 36 23 5 8 9 9 5 5 1 5 12 5 3 11 10 12 17 10 17 16 17 18 13 5 5 5 7 8 11 14 8 17 15 16 14 18 14
39 40 39 37 19 29 48 44 39 9 7 13 9 8 9 7 7 5 4 2 12 6 6 7 7 18 12 25 16 10 6 13 14 7 2 5 4 11 8 14 13 14 17 18 17
39 41 39 37 33 43 48 48 18 8 7 9 11 12 12 8 3 5 6 3 3 2 3 6 5 2 18 11 17 6 5 4 2 10 13 22 14 18 14 8 12 19 19 15 14
37 39 45 38 23 48 49 23 8 10 1 9 14 18 21 10 9 6 12 11 8 13 14 22 12 1 1 12 9 9 16 8 8 7 5 15 9 26 5 9 15 19 21 20 12
38 38 47 46 30 54 43 12 11 9 9 7 13 19 16 13 7 7 14 13 15 4 7 15 10 21 15 12 10 23 15 4 11 5 20 8 13 12 13 18 10 16 17 11 8
38 37 37 45 48 51 17 17 9 16 10 15 19 20 10 9 8 11 10 12 15 10 9 11 11 3 12 12 18 13 19 27 2 2 2 5 11 9 5 6 8 19 8 14 16
38 30 30 40 43 42 18 16 8 8 13 17 10 11 16 23 12 16 14 11 7 20 1 4 2 5 8 3 16 24 11 12 10 9 11 5 18 16 12 20 11 12 18 20 19
25 13 28 46 52 15 17 8 6 7 18 7 7 8 9 18 13 13 12 3 16 12 11 3 4 4 4 10 18 14 14 15 13 14 12 18 17 9 16 15 19 22 21 18 16
16 10 29 52 12 13 19 15 7 9 2 5 8 8 12 15 10 11 11 6 11 16 14 6 1 6 16 7 4 5 4 21 13 15 18 22 23 1 15 22 21 21 24 16 8
14 3 28 37 14 14 8 8 6 11 5 6 5 5 6 14 8 10 11 8 9 16 15 10 6 3 10 5 10 12 16 15 24 9 13 18 22 4 6 7 10 11 10 9 4
8 6 7 14 3 17 19 17 9 3 4 6 6 8 10 11 3 13 8 7 11 14 13 18 4 8 13 12 3 13 18 25 27 18 18 19 27 19 9 10 9 10 9 7 7
1 3 2 11 12 19 19 20 20 8 2 4 4 9 10 6 5 7 10 4 4 3 7 11 6 5 16 16 13 18 14 16 15 24 17 27 25 33 21 12 7 8 5 7 9
3 5 5 7 23 26 18 11 23 5 5 5 10 9 7 8 4 5 7 3 3 3 4 2 5 4 16 14 10 14 17 23 25 25 19 26 26 30 19 8 10 16 6 9 11
0 5 5 17 16 18 6 14 19 10 8 5 14 6 4 5 9 7 7 5 5 5 4 5 3 3 13 10 11 10 19 20 21 28 26 24 25 43 28 18 16 8 10 16 15
Wind_Direction
224 225 227 226 227 228 231 229 233 231 236 234 234 235 232 223 231 235 215 211 213 153 178 170 137 115 72 65 85 132 77 210 220 152 248 140 196 182 118 131 239 192 164 153 166
227 224 224 225 222 225 225 227 223 225 229 229 228 232 231 225 227 239 225 216 223 198 163 164 139 118 75 79 325 93 190 214 247 204 282 237 213 187 174 157 234 241 198 153 161
225 223 222 220 222 223 223 225 222 221 229 230 228 225 226 214 294 236 238 221 210 220 222 190 149 116 102 145 144 175 163 307 293 352 342 293 253 180 156 214 214 207 170 168 167
224 223 221 221 220 219 220 222 223 220 223 221 223 218 209 189 223 153 241 224 206 212 193 164 136 130 135 162 162 139 179 287 323 334 354 310 306 223 203 225 284 215 164 168 181
228 223 220 218 217 219 218 215 220 223 221 214 214 210 186 241 227 252 339 219 206 196 184 159 154 144 161 162 142 184 201 160 280 312 316 293 249 244 238 245 344 150 159 178 188
228 221 223 218 215 217 216 215 214 217 217 213 207 196 193 235 250 248 311 179 197 193 195 175 180 169 151 186 183 188 183 179 242 298 262 256 277 172 262 190 164 174 189 186 190
242 222 223 223 218 214 214 213 210 211 209 207 199 194 221 227 185 221 244 201 197 194 170 194 203 165 136 148 205 128 194 220 206 168 287 7 280 230 245 182 207 211 201 199 202
242 241 234 221 220 212 210 209 204 205 203 198 184 182 232 228 219 222 197 187 201 207 193 187 173 116 152 130 65 142 111 239 174 130 272 152 261 288 235 179 234 223 208 206 211
233 241 247 216 216 211 209 203 199 197 192 181 163 170 237 211 211 221 197 181 182 192 183 178 156 131 167 141 133 203 202 195 270 190 120 118 285 268 205 192 238 245 223 218 222
234 234 241 231 212 209 200 196 186 175 174 162 149 112 230 214 155 202 189 190 163 140 120 162 175 186 187 187 209 189 213 175 192 157 181 166 247 266 270 224 241 248 249 228 227
237 232 228 220 220 204 187 164 137 156 179 183 192 146 85 146 164 173 169 136 147 180 195 182 207 208 210 207 160 162 175 202 171 154 139 218 253 262 234 220 253 242 241 235 233
234 234 233 228 216 194 179 178 181 158 178 220 148 111 122 154 112 141 162 166 182 210 190 197 219 219 216 206 238 267 189 180 258 140 196 193 258 255 253 237 234 236 237 234 239
234 232 225 231 217 185 182 191 169 142 140 210 140 190 167 137 147 185 164 157 190 209 200 211 223 222 213 218 223 235 218 168 169 135 273 36 272 254 255 244 245 239 242 235 223
234 227 226 216 222 178 191 179 168 158 125 171 189 200 144 138 234 183 177 133 213 222 196 234 251 192 216 224 201 233 212 195 152 166 235 181 274 242 225 239 230 236 225 235 224
232 221 215 207 206 188 181 178 170 136 201 159 169 159 155 162 143 197 189 104 191 169 178 219 161 209 207 219 207 228 165 206 225 236 275 207 272 274 184 235 244 245 234 231 222
226 212 206 204 212 181 169 169 156 144 195 166 147 165 156 186 132 123 157 95 77 64 287 228 146 149 226 215 206 148 150 149 151 220 234 228 219 258 234 203 242 249 251 235 211
222 212 204 195 212 178 165 158 167 193 194 157 171 171 178 164 148 174 177 178 163 183 218 241 230 159 234 225 192 191 211 220 237 228 232 206 199 233 254 204 215 233 244 247 209
216 213 203 200 196 160 163 175 187 128 179 176 165 169 175 147 165 167 169 189 207 173 197 212 231 202 201 208 204 211 203 198 200 198 229 150 224 234 229 227 211 231 241 263 230
204 205 197 196 192 165 166 184 163 166 161 148 141 164 173 172 136 177 188 196 192 187 178 191 235 243 181 197 203 205 211 221 19 58 343 179 267 275 206 253 256 244 250 251 254
191 194 196 187 174 169 177 178 153 153 126 142 138 174 176 180 164 184 175 199 199 205 312 196 314 206 220 165 215 216 194 203 218 207 230 232 239 235 201 218 227 240 243 245 245
178 188 191 183 171 178 185 156 126 185 136 141 129 124 170 179 173 185 193 223 198 186 178 156 142 225 101 200 216 214 233 215 221 212 235 246 249 196 211 209 219 225 240 247 241
172 190 177 166 178 181 175 142 126 148 98 103 99 99 153 153 166 188 206 216 174 152 189 195 94 252 240 216 194 241 236 252 210 209 225 230 244 166 215 199 210 217 226 241 245
168 120 177 174 180 170 126 129 102 156 139 130 121 138 142 160 161 193 186 217 164 171 168 157 211 323 320 250 223 235 248 257 253 217 218 220 247 196 211 202 224 231 240 256 238
154 146 174 177 148 141 131 146 120 56 67 88 109 109 108 160 58 182 177 217 178 187 166 169 166 189 224 230 341 221 238 250 248 228 221 216 244 219 214 204 213 230 237 252 222
56 94 68 161 165 138 128 161 139 140 69 118 54 152 138 143 172 173 179 159 89 165 174 173 224 222 255 274 294 268 256 256 274 254 238 227 228 249 238 230 222 238 247 218 220
110 113 98 101 146 144 131 156 147 107 137 156 141 144 165 145 139 115 117 116 154 128 141 236 262 227 261 261 257 258 287 285 277 257 289 262 267 259 241 225 215 227 230 242 240
178 89 104 141 153 148 157 155 142 124 24 129 140 115 72 97 108 103 92 111 109 116 151 178 148 99 265 268 277 267 244 254 256 250 238 259 243 257 259 254 240 222 213 238 249